Location: Hains Lake
(37.8540°N, 99.8578°W)
Time: 05:04:53
(UTC+00:00)

Vanguard 2 Rocket - Pass Details

Date: 23 April 2021
Orbit: 553 x 3326 km, 32.9° (Epoch: 07 May)

Event Time Altitude Azimuth Distance (km) Brightness Sun altitude
Rises 01:35:51 0° 284° (WNW) 7,313 14.4 -3.4°
Reaches altitude 10° 01:41:31 10° 277° (W) 6,195 12.8 -4.5°
Maximum altitude 01:57:38 36° 220° (SW) 3,638 10.1 -7.4°
Drops below altitude 10° 02:08:52 10° 159° (SSE) 4,330 9.9 -9.5°
Enters shadow 02:11:45 - 151° (SSE) 4,903 10.2 -10.0°
Sets 02:12:04 0° 150° (SSE) 4,971 - -10.1°
